{"data":{"norad_id":69044,"intl_designator":"2026-101V","name":"STARLINK-37664","alt_names":[],"object_type":"PAYLOAD","status":"ACTIVE","operator":null,"country":"US","launch_date":"2026-05-06","launch_site_code":"AFWTR","launch_vehicle":null,"mission":null,"orbit_class":"UNKNOWN","rcs_meters":null,"size_class":null,"mass_kg":null,"dimensions":null,"purposes":["comms"],"wikipedia_slug":null,"has_3d_model":false,"image_url":null,"decayed_at":null,"tle_current":{"epoch":"2026-05-25T04:00:03.998880Z","epoch_age_seconds":56572,"freshness":"FRESH","line1":"1 69044U 26101V   26145.16671295 -.01922618  00000+0 -25154-1 0  9996","line2":"2 69044  97.2858 359.9206 0001599  83.2585  22.5271 15.61816131  4234","mean_motion":15.61816131,"eccentricity":0.0001599,"inclination_deg":97.2858,"raan_deg":359.9206,"arg_perigee_deg":83.2585,"mean_anomaly_deg":22.5271,"bstar":-0.025154,"rev_number":423,"period_min":92.200353896844,"perigee_km":381.33006064711,"apogee_km":383.49208392063,"semimajor_km":6760.5480722839,"source":"CELESTRAK","updated_at":"2026-05-25T13:38:22.100459Z"}}}